TimeEST,TemperatureF,Dew PointF,Humidity,Sea Level PressureIn,VisibilityMPH,Wind Direction,Wind SpeedMPH,Gust SpeedMPH,PrecipitationIn,Events,Conditions,WindDirDegrees,DateUTC
12:15 AM,32.0,22.8,69,30.06,10.0,Calm,Calm,-,N/A,,Scattered Clouds,0,2013-03-05 05:15:00
12:35 AM,33.1,25.0,72,30.06,10.0,Calm,Calm,-,N/A,,Scattered Clouds,0,2013-03-05 05:35:00
12:55 AM,33.3,27.0,78,30.06,10.0,Calm,Calm,-,N/A,,Mostly Cloudy,0,2013-03-05 05:55:00
1:15 AM,33.8,26.2,74,30.06,10.0,Calm,Calm,-,N/A,,Overcast,0,2013-03-05 06:15:00
1:35 AM,33.8,25.0,70,30.07,10.0,Calm,Calm,-,N/A,,Overcast,0,2013-03-05 06:35:00
1:55 AM,34.3,25.9,71,30.07,10.0,Calm,Calm,-,N/A,,Overcast,0,2013-03-05 06:55:00
2:15 AM,34.7,25.2,68,30.07,10.0,Calm,Calm,-,N/A,,Overcast,0,2013-03-05 07:15:00
2:35 AM,34.9,25.5,69,30.07,10.0,Calm,Calm,-,N/A,,Overcast,0,2013-03-05 07:35:00
2:55 AM,35.1,27.0,72,30.06,10.0,Calm,Calm,-,N/A,Rain,Light Rain,0,2013-03-05 07:55:00
3:15 AM,35.1,30.6,84,30.07,10.0,Calm,Calm,-,N/A,,Light Drizzle,0,2013-03-05 08:15:00
3:35 AM,35.6,30.2,81,30.06,10.0,Calm,Calm,-,N/A,,Overcast,0,2013-03-05 08:35:00
3:55 AM,35.6,30.6,82,30.06,10.0,Calm,Calm,-,N/A,,Mostly Cloudy,0,2013-03-05 08:55:00
4:15 AM,35.4,31.3,85,30.06,10.0,Calm,Calm,-,N/A,,Mostly Cloudy,0,2013-03-05 09:15:00
4:35 AM,36.1,31.5,83,30.06,10.0,Calm,Calm,-,N/A,,Overcast,0,2013-03-05 09:35:00
4:55 AM,35.6,31.1,84,30.06,10.0,Calm,Calm,-,N/A,,Overcast,0,2013-03-05 09:55:00
5:15 AM,35.8,31.6,85,30.06,10.0,Calm,Calm,-,N/A,,Scattered Clouds,0,2013-03-05 10:15:00
5:35 AM,35.2,30.0,81,30.05,10.0,Calm,Calm,-,N/A,,Scattered Clouds,0,2013-03-05 10:35:00
5:55 AM,34.7,30.2,84,30.06,10.0,Calm,Calm,-,N/A,,Scattered Clouds,0,2013-03-05 10:55:00
6:15 AM,34.3,29.7,83,30.05,10.0,Calm,Calm,-,N/A,,Clear,0,2013-03-05 11:15:00
6:35 AM,33.4,29.3,85,30.04,10.0,Calm,Calm,-,N/A,,Scattered Clouds,0,2013-03-05 11:35:00
6:55 AM,33.1,29.5,87,30.05,10.0,Calm,Calm,-,N/A,,Scattered Clouds,0,2013-03-05 11:55:00
7:15 AM,34.0,29.1,82,30.04,10.0,Calm,Calm,-,N/A,,Scattered Clouds,0,2013-03-05 12:15:00
7:35 AM,34.0,30.2,86,30.05,10.0,Calm,Calm,-,N/A,,Mostly Cloudy,0,2013-03-05 12:35:00
8:15 AM,38.3,30.0,72,30.03,10.0,Calm,Calm,-,N/A,,Overcast,0,2013-03-05 13:15:00
8:35 AM,41.4,29.7,63,30.04,10.0,North,4.6,-,N/A,,Overcast,360,2013-03-05 13:35:00
8:55 AM,44.4,28.2,53,30.05,10.0,Calm,Calm,-,N/A,,Overcast,0,2013-03-05 13:55:00
9:15 AM,45.7,26.1,46,30.04,10.0,Calm,Calm,-,N/A,,Mostly Cloudy,0,2013-03-05 14:15:00
9:35 AM,46.9,25.5,43,30.02,10.0,East,3.5,-,N/A,,Scattered Clouds,90,2013-03-05 14:35:00
9:55 AM,47.7,25.5,42,30.01,10.0,Calm,Calm,-,N/A,,Scattered Clouds,0,2013-03-05 14:55:00
10:15 AM,48.6,25.5,41,30.01,10.0,North,3.5,-,N/A,,Mostly Cloudy,10,2013-03-05 15:15:00
10:35 AM,49.3,25.5,40,30.01,10.0,Calm,Calm,-,N/A,,Overcast,0,2013-03-05 15:35:00
10:55 AM,50.0,26.1,39,30.00,10.0,Calm,Calm,-,N/A,,Overcast,0,2013-03-05 15:55:00
11:15 AM,50.2,25.5,38,29.99,10.0,Calm,Calm,-,N/A,,Overcast,0,2013-03-05 16:15:00
11:35 AM,51.8,25.2,36,29.98,10.0,Calm,Calm,-,N/A,,Overcast,0,2013-03-05 16:35:00
11:55 AM,51.4,25.7,37,29.98,10.0,Calm,Calm,-,N/A,,Overcast,0,2013-03-05 16:55:00
12:15 PM,52.0,24.8,35,29.97,10.0,East,3.5,-,N/A,,Overcast,100,2013-03-05 17:15:00
12:35 PM,52.2,25.2,35,29.95,10.0,SE,4.6,-,N/A,,Overcast,130,2013-03-05 17:35:00
12:55 PM,51.8,26.4,37,29.94,10.0,ESE,5.8,-,N/A,Rain,Light Rain,110,2013-03-05 17:55:00
1:15 PM,53.8,27.1,36,29.93,10.0,ENE,3.5,-,N/A,,Mostly Cloudy,70,2013-03-05 18:15:00
1:35 PM,54.9,27.3,35,29.91,10.0,Calm,Calm,-,N/A,,Overcast,0,2013-03-05 18:35:00
1:55 PM,54.3,27.5,36,29.89,10.0,Calm,Calm,-,N/A,,Mostly Cloudy,0,2013-03-05 18:55:00
2:15 PM,54.7,28.8,37,29.89,10.0,East,3.5,-,N/A,,Scattered Clouds,100,2013-03-05 19:15:00
2:35 PM,56.8,30.2,36,29.88,10.0,ENE,3.5,-,N/A,,Scattered Clouds,70,2013-03-05 19:35:00
2:55 PM,55.6,30.7,39,29.86,10.0,SE,3.5,-,N/A,,Mostly Cloudy,130,2013-03-05 19:55:00
3:15 PM,54.9,30.4,39,29.87,10.0,East,5.8,-,N/A,,Overcast,80,2013-03-05 20:15:00
3:35 PM,53.1,31.6,44,29.88,10.0,East,4.6,-,N/A,Rain,Light Rain,80,2013-03-05 20:35:00
3:55 PM,49.8,39.4,67,29.86,5.0,East,4.6,-,0.03,Rain,Rain,90,2013-03-05 20:55:00
4:15 PM,47.3,42.8,84,29.87,7.0,Calm,Calm,-,0.02,Rain,Rain,0,2013-03-05 21:15:00
4:35 PM,47.1,47.1,100,29.86,7.0,Calm,Calm,-,0.04,Rain,Light Rain,0,2013-03-05 21:35:00
4:55 PM,46.9,46.9,100,29.86,5.0,Calm,Calm,-,0.05,Rain,Light Rain,0,2013-03-05 21:55:00
5:15 PM,46.6,46.6,100,29.84,3.0,SSE,3.5,-,0.02,Rain,Rain,160,2013-03-05 22:15:00
5:35 PM,46.2,46.2,100,29.83,2.5,SE,3.5,-,0.06,Rain,Rain,130,2013-03-05 22:35:00
5:55 PM,-9999,-9999,N/A,29.81,3.0,East,5.8,-,0.08,Rain,Rain,100,2013-03-05 22:55:00
6:15 PM,-9999,-9999,N/A,29.81,5.0,SE,5.8,-,N/A,,Light Drizzle,130,2013-03-05 23:15:00
6:35 PM,-9999,-9999,N/A,29.80,3.0,East,5.8,-,0.02,Rain,Rain,100,2013-03-05 23:35:00
6:55 PM,-9999,-9999,N/A,29.77,4.0,East,4.6,-,0.03,Rain,Light Rain,80,2013-03-05 23:55:00
7:15 PM,-9999,-9999,N/A,29.75,4.0,East,4.6,-,N/A,,Drizzle,80,2013-03-06 00:15:00
7:35 PM,-9999,-9999,N/A,29.74,4.0,Calm,Calm,-,0.02,Rain,Light Rain,0,2013-03-06 00:35:00
7:55 PM,-9999,-9999,N/A,29.73,3.0,ENE,4.6,-,0.07,Rain,Heavy Rain,60,2013-03-06 00:55:00
8:15 PM,-9999,-9999,N/A,29.72,2.0,North,3.5,-,0.05,,Overcast,10,2013-03-06 01:15:00
8:35 PM,-9999,-9999,N/A,29.72,4.0,North,3.5,-,0.13,Rain,Rain,10,2013-03-06 01:35:00
8:55 PM,-9999,-9999,N/A,29.73,4.0,North,6.9,-,0.23,Rain,Heavy Rain,350,2013-03-06 01:55:00
9:15 PM,-9999,-9999,N/A,29.73,7.0,North,8.1,-,0.04,Rain,Rain,350,2013-03-06 02:15:00
9:35 PM,-9999,-9999,N/A,29.71,10.0,NNE,4.6,-,0.10,Rain,Rain,20,2013-03-06 02:35:00
9:55 PM,41.9,41.9,100,29.68,10.0,North,8.1,-,0.11,,Light Drizzle,10,2013-03-06 02:55:00
10:15 PM,41.4,41.4,100,29.68,10.0,NE,5.8,-,N/A,,Light Drizzle,40,2013-03-06 03:15:00
10:35 PM,41.2,41.2,100,29.68,7.0,North,3.5,-,0.02,Rain,Rain,10,2013-03-06 03:35:00
10:55 PM,-9999,-9999,N/A,29.65,4.0,NE,3.5,-,0.10,Rain,Rain,50,2013-03-06 03:55:00
11:15 PM,-9999,-9999,N/A,29.63,10.0,East,5.8,-,0.01,Rain,Light Rain,90,2013-03-06 04:15:00
11:35 PM,-9999,-9999,N/A,29.63,10.0,NW,8.1,-,0.03,Rain,Light Rain,310,2013-03-06 04:35:00
11:55 PM,-9999,-9999,N/A,29.64,10.0,NW,8.1,-,0.03,Rain,Rain,310,2013-03-06 04:55:00